Location: Brachbach
(49.1847°N, 9.7240°E)
Time: 10:53:59
(UTC+00:00)

YUBILEINY - Visible Passes

Search period start: 15 March 2026 00:00
Search period end: 25 March 2026 00:00
Orbit: 1478 x 1509 km, 82.5° (Epoch: 14 March)

Date Brightness Start Highest point End Pass type
(mag) Time Alt. Az. Time Alt. Az. Time Alt. Az.
15 Mar ? 01:00:42 10° N 01:08:07 29° ENE 01:15:25 10° ESE visible
15 Mar ? 02:57:09 10° NNW 03:05:53 77° W 03:14:32 10° S visible
15 Mar ? 04:55:46 10° NW 05:01:10 18° WNW 05:06:34 10° WSW visible
15 Mar ? 18:03:16 10° WSW 18:09:39 22° NW 18:16:04 10° N visible
16 Mar ? 00:11:43 10° N 00:17:20 18° NE 00:22:55 10° E visible
16 Mar ? 02:07:26 10° N 02:16:09 67° ENE 02:24:47 10° SSE visible
16 Mar ? 04:04:57 10° NNW 04:12:20 32° W 04:19:41 10° SW visible
16 Mar ? 23:24:09 10° NNE 23:26:06 11° NE 23:28:02 10° NE visible
17 Mar ? 01:17:55 10° N 01:26:04 41° ENE 01:34:08 10° SE visible
17 Mar ? 03:14:46 10° NNW 03:23:10 55° W 03:31:31 10° SSW visible
17 Mar ? 18:23:17 10° W 18:28:02 15° NW 18:32:47 10° NNW visible
18 Mar ? 00:28:38 10° N 00:35:36 25° ENE 00:42:30 10° ESE visible
18 Mar ? 02:24:54 10° N 02:33:41 88° W 02:42:05 11° S visible
18 Mar ? 04:23:05 10° NNW 04:29:14 22° WNW 04:35:22 10° WSW visible
18 Mar ? 23:39:50 10° NNE 23:44:41 16° NE 23:49:30 10° E visible
19 Mar ? 01:35:14 10° N 01:43:50 58° ENE 01:50:57 16° SSE visible
19 Mar ? 03:32:33 10° NNW 03:40:18 38° W 03:46:44 15° SW visible
19 Mar ? 18:45:02 10° NW 18:46:39 11° NW 18:48:16 10° NNW visible
20 Mar ? 00:45:47 10° N 00:53:39 36° ENE 01:00:30 13° SE visible
20 Mar ? 02:42:28 10° NNW 02:51:02 64° W 02:56:19 26° SSW visible
20 Mar ? 04:41:53 10° NW 04:45:57 14° WNW 04:50:02 10° W visible
20 Mar ? 23:56:36 10° N 00:03:04 22° NE 00:09:26 10° ESE visible
21 Mar ? 01:52:40 10° N 02:01:27 81° E 02:06:11 31° SSE visible
21 Mar ? 03:50:32 10° NNW 03:57:16 26° WNW 04:02:01 16° WSW visible
21 Mar ? 23:08:07 10° NNE 23:12:00 13° NE 23:15:52 10° ENE visible
22 Mar ? 01:03:04 10° N 01:11:30 50° ENE 01:16:13 27° SE visible
22 Mar ? 03:00:10 10° NNW 03:08:14 45° W 03:12:04 29° SW visible
22 Mar ? 18:10:34 10° WNW 18:13:54 12° NW 18:17:14 10° NNW visible
23 Mar ? 00:13:40 10° N 00:21:11 31° ENE 00:26:22 18° ESE visible
23 Mar ? 02:10:11 10° NNW 02:18:52 74° W 02:22:13 42° SSW visible
23 Mar ? 04:08:57 10° NW 04:14:04 17° WNW 04:18:04 13° WSW visible
23 Mar ? 23:24:37 10° N 23:30:28 19° NE 23:36:15 10° E visible
24 Mar ? 01:20:26 10° N 01:29:10 70° ENE 01:32:28 42° SSE visible
24 Mar ? 03:18:02 10° NNW 03:25:16 31° W 03:28:19 25° WSW visible
24 Mar ? 22:36:44 10° NNE 22:39:16 11° NE 22:41:48 10° ENE visible
